Ravenna, OH

10:22 PM EDT on October 18, 2017 (GMT -0400)
Ravenna

Weather History for KPOV - April, 2014

Change the Weather History Date:

Sunday, April 27, 2014

  Actual Average (KCAK) Record (KCAK)
Temperature  
Mean Temperature 44 °F -  
Max Temperature 58 °F 64 °F 87 °F (1990)
Min Temperature 30 °F 40 °F 27 °F (1971)
Degree Days  
Heating Degree Days 21    
Moisture  
Dew Point 32 °F    
Average Humidity 66    
Maximum Humidity 100    
Minimum Humidity 35    
Precipitation  
Precipitation 0.00 in - - ()
Sea Level Pressure  
Sea Level Pressure 30.09 in    
Wind  
Wind Speed 5 mph (NE)    
Max Wind Speed 13 mph    
Max Gust Speed 16 mph    
Visibility 10 miles    
Events      
Averages and records for this station are not official NWS values.
T = Trace of Precipitation, MM = Missing Value Source: NWS Daily Summary

Daily Weather History Graph

Daily Weather History Graph

Search for Another Location

Airport or City:

Trip Planner

Search our weather history database for the weather conditions in past years. The results will help you decide how hot, cold, wet, or windy it might be!

Date:

Astronomy

Apr. 27, 2014 Rise Set
Actual Time 6:27 AM EDT 8:17 PM EDT
Civil Twilight 5:58 AM EDT 8:47 PM EDT
Nautical Twilight 5:22 AM EDT 9:23 PM EDT
Astronomical Twilight 4:43 AM EDT 10:02 PM EDT
Moon 5:28 AM EDT (4/27) 6:49 PM EDT (4/27)
Length of Visible Light 14h 49m
Length of Day
13h 49m
Waning Crescent, 3% of the Moon is Illuminated
Apr 27
Waning Crescent
Apr 29
New
May 6
First Quarter
May 14
Full
May 21
Last Quarter

Hourly Weather History & Observations

Time (EDT) Temp. Windchill Dew Point Humidity Pressure Visibility Wind Dir Wind Speed Gust Speed Precip Events Conditions
12:16 AM 37.4 °F 31.4 °F 32.7 °F 83% 30.07 in 10.0 mi NNE 8.1 mph - N/A   Overcast
12:36 AM 37.2 °F 34.7 °F 32.5 °F 83% 30.07 in 10.0 mi North 3.5 mph - N/A   Overcast
12:56 AM 37.2 °F 30.6 °F 32.7 °F 84% 30.07 in 10.0 mi NNE 9.2 mph - N/A   Overcast
1:16 AM 35.8 °F 31.9 °F 32.0 °F 86% 30.06 in 10.0 mi North 4.6 mph - N/A   Scattered Clouds
1:35 AM 35.6 °F - 32.0 °F 87% 30.07 in 10.0 mi Calm Calm - N/A   Scattered Clouds
1:56 AM 35.2 °F - 32.2 °F 89% 30.07 in 10.0 mi Calm Calm - N/A   Mostly Cloudy
2:16 AM 35.2 °F - 33.1 °F 92% 30.07 in 10.0 mi Calm Calm - N/A   Scattered Clouds
2:35 AM 34.9 °F - 33.6 °F 95% 30.07 in 10.0 mi Calm Calm - N/A   Clear
2:55 AM 34.7 °F - 34.9 °F 100% 30.07 in 10.0 mi Calm Calm - N/A   Clear
3:16 AM 33.3 °F - 33.3 °F 100% 30.07 in 10.0 mi Calm Calm - N/A   Clear
3:36 AM 33.8 °F - 34.0 °F 100% 30.08 in 10.0 mi Calm Calm - N/A   Clear
3:56 AM 32.9 °F - 32.9 °F 100% 30.08 in 7.0 mi Calm Calm - N/A   Clear
4:16 AM 32.0 °F - 32.0 °F 100% 30.08 in 10.0 mi Calm Calm - N/A   Clear
4:35 AM 32.2 °F - 32.2 °F 100% 30.07 in 7.0 mi Calm Calm - N/A   Clear
4:56 AM 31.6 °F - 31.8 °F 100% 30.08 in 10.0 mi Calm Calm - N/A   Clear
5:16 AM 32.9 °F - 32.9 °F 100% 30.09 in 7.0 mi Calm Calm - N/A   Clear
5:35 AM 31.8 °F - 32.0 °F 100% 30.09 in 10.0 mi Calm Calm - N/A   Clear
5:56 AM 32.5 °F - - N/A% 30.09 in 7.0 mi Calm Calm - N/A   Clear
6:16 AM 32.4 °F - 32.5 °F 100% 30.10 in 7.0 mi Calm Calm - N/A   Clear
6:36 AM 30.6 °F - 30.6 °F 100% 30.11 in 3.0 mi Calm Calm - N/A   Clear
6:55 AM 31.5 °F 26.8 °F - N/A% 30.11 in 5.0 mi North 4.6 mph - N/A   Haze
7:16 AM 33.6 °F - 33.8 °F 100% 30.12 in 10.0 mi Calm Calm - N/A   Clear
7:36 AM 34.3 °F 31.4 °F 34.5 °F 100% 30.14 in 7.0 mi WNW 3.5 mph - N/A   Clear
7:56 AM 35.6 °F - 35.8 °F 100% 30.15 in 10.0 mi Calm Calm - N/A   Clear
8:16 AM 37.0 °F - 37.4 °F 100% 30.15 in 10.0 mi Calm Calm - N/A   Clear
8:35 AM 38.8 °F 34.6 °F 31.6 °F 75% 30.15 in 10.0 mi NE 5.8 mph - N/A   Clear
8:56 AM 39.9 °F 32.9 °F 31.6 °F 72% 30.13 in 10.0 mi NE 11.5 mph - N/A   Clear
9:16 AM 40.5 °F 35.1 °F 31.6 °F 71% 30.14 in 10.0 mi NE 8.1 mph - N/A   Clear
9:36 AM 41.4 °F 36.2 °F 31.5 °F 68% 30.14 in 10.0 mi NE 8.1 mph - N/A   Clear
9:55 AM 43.3 °F 39.9 °F 31.6 °F 63% 30.13 in 10.0 mi NE 5.8 mph - N/A   Clear
10:16 AM 44.1 °F 41.5 °F 31.6 °F 62% 30.15 in 10.0 mi ENE 4.6 mph - N/A   Clear
10:36 AM 45.1 °F 42.0 °F 31.8 °F 60% 30.15 in 10.0 mi NE 5.8 mph - N/A   Clear
10:55 AM 46.2 °F - 31.5 °F 56% 30.15 in 10.0 mi Calm Calm - N/A   Clear
11:16 AM 47.1 °F - 32.0 °F 56% 30.14 in 10.0 mi NNE 6.9 mph - N/A   Clear
11:36 AM 48.7 °F - 32.4 °F 53% 30.14 in 10.0 mi NE 5.8 mph - N/A   Clear
12:16 PM 50.9 °F - 32.0 °F 48% 30.12 in 10.0 mi ENE 6.9 mph - N/A   Clear
12:36 PM 51.8 °F - 32.4 °F 48% 30.12 in 10.0 mi East 6.9 mph - N/A   Clear
12:56 PM 52.3 °F - 33.1 °F 48% 30.11 in 10.0 mi ENE 8.1 mph - N/A   Clear
1:16 PM 52.5 °F - 32.9 °F 47% 30.10 in 10.0 mi NE 4.6 mph - N/A   Scattered Clouds
1:36 PM 52.9 °F - 30.7 °F 43% 30.10 in 10.0 mi NE 6.9 mph - N/A   Scattered Clouds
1:56 PM 54.5 °F - 32.5 °F 43% 30.09 in 10.0 mi East 4.6 mph - N/A   Clear
2:16 PM 53.6 °F - 31.1 °F 42% 30.08 in 10.0 mi NE 5.8 mph - N/A   Clear
2:36 PM 55.2 °F - 32.4 °F 42% 30.08 in 10.0 mi NE 10.4 mph - N/A   Clear
2:56 PM 56.1 °F - 32.7 °F 41% 30.08 in 10.0 mi ENE 3.5 mph - N/A   Clear
3:16 PM 57.2 °F - 34.3 °F 42% 30.07 in 10.0 mi East 10.4 mph - N/A   Clear
3:36 PM 57.0 °F - 32.0 °F 39% 30.06 in 10.0 mi SE 3.5 mph - N/A   Clear
4:16 PM 58.1 °F - 32.9 °F 39% 30.06 in 10.0 mi ENE 9.2 mph - N/A   Clear
4:36 PM 57.4 °F - 30.2 °F 36% 30.06 in 10.0 mi East 3.5 mph - N/A   Clear
4:56 PM 57.9 °F - 30.9 °F 36% 30.06 in 10.0 mi Calm Calm - N/A   Clear
5:16 PM 58.8 °F - 32.0 °F 36% 30.05 in 10.0 mi East 6.9 mph - N/A   Clear
5:36 PM 58.6 °F - 31.5 °F 36% 30.05 in 10.0 mi East 9.2 mph - N/A   Clear
5:55 PM 58.3 °F - 30.4 °F 35% 30.05 in 10.0 mi East 3.5 mph - N/A   Clear
6:16 PM 58.1 °F - 31.3 °F 36% 30.05 in 10.0 mi East 4.6 mph - N/A   Clear
6:35 PM 57.6 °F - 31.5 °F 37% 30.05 in 10.0 mi NE 8.1 mph - N/A   Clear
6:56 PM 56.8 °F - 32.0 °F 39% 30.05 in 10.0 mi ENE 9.2 mph - N/A   Clear
7:16 PM 55.4 °F - 32.9 °F 43% 30.05 in 10.0 mi East 8.1 mph - N/A   Clear
7:35 PM 52.9 °F - 35.1 °F 51% 30.05 in 10.0 mi NE 9.2 mph - N/A   Clear
7:56 PM 51.4 °F - 34.7 °F 53% 30.06 in 10.0 mi NE 8.1 mph - N/A   Clear
8:16 PM 50.2 °F - 34.0 °F 54% 30.08 in 10.0 mi NE 6.9 mph - N/A   Clear
8:36 PM 49.3 °F - 33.8 °F 55% 30.08 in 10.0 mi NE 6.9 mph - N/A   Clear
8:56 PM 48.2 °F - 32.4 °F 54% 30.07 in 10.0 mi NE 11.5 mph 16.1 mph N/A   Clear
9:16 PM 47.1 °F - 32.0 °F 56% 30.08 in 10.0 mi NE 11.5 mph - N/A   Clear
9:36 PM 46.9 °F - 32.0 °F 56% 30.09 in 10.0 mi NE 12.7 mph - N/A   Clear
9:55 PM 46.2 °F 40.5 °F 31.8 °F 57% 30.08 in 10.0 mi NE 12.7 mph - N/A   Clear
10:16 PM 45.5 °F 39.6 °F 31.6 °F 58% 30.08 in 10.0 mi NE 12.7 mph - N/A   Scattered Clouds
10:35 PM 45.1 °F 39.9 °F 31.8 °F 60% 30.08 in 10.0 mi ENE 10.4 mph - N/A   Scattered Clouds
10:56 PM 45.5 °F 40.8 °F 32.0 °F 59% 30.09 in 10.0 mi NE 9.2 mph - N/A   Mostly Cloudy
11:16 PM 45.1 °F 39.5 °F 32.0 °F 60% 30.08 in 10.0 mi NE 11.5 mph - N/A   Mostly Cloudy
11:36 PM 44.8 °F 39.9 °F 32.2 °F 61% 30.08 in 10.0 mi ENE 9.2 mph - N/A   Scattered Clouds
11:56 PM 44.6 °F 38.8 °F 32.4 °F 62% 30.07 in 10.0 mi ENE 11.5 mph - N/A   Clear